[[{"header":{"parameterUnit":"m.s-1","parameterCategory":1,"la1":30.2991,"la2":30.254,"lo1":-89.0895,"lo2":-89.0444,"dy":0.0017,"dx":0.0017,"nx":28,"ny":28,"refTime":"2024-08-11T15:00:00:Z","depth":0,"parameterNumber":2,"parameterNumberName":"U-component_of_WINDS"},"data":[0,0,0,0,0,0,0,0,0,0,0,0,0,0,0,0,0,0,0,0,0,0,0,0,0,0,0,0,0,0,0,0,0,0,0,0,0,0,0,0,0,0,0,0,0,0,0,0,0,0,0,0,0,0,0,0,0,0,3.8344,3.8345,0,3.8482,3.8484,3.8485,3.8423,3.842,3.8416,3.8413,3.8557,3.8564,3.8571,0,0,0,0,0,0,0,0,0,0,0,0,0,3.8027,3.8033,3.8343,3.8345,3.8347,3.8482,3.8484,3.8486,3.8424,3.842,3.8415,3.8412,3.8555,3.8563,3.8572,0,0,0,0,0,0,0,0,0,0,0,0,0,3.8165,3.8035,3.8343,3.8332,3.8333,3.8481,3.8484,3.8486,3.8425,3.842,3.8414,3.841,3.8552,3.8562,3.8573,3.8741,0,0,3.8605,3.861,0,0,0,0,0,0,0,0,3.8157,3.8177,3.8332,3.8333,3.8334,3.843,3.8425,3.8572,3.8426,3.839,3.8413,3.8407,3.8519,3.8532,3.857,3.8748,3.8754,3.8606,3.8612,3.8617,3.862,0,0,0,0,0,0,0,3.8148,3.817,3.8398,3.8334,3.8336,3.8321,3.8335,3.8453,3.8482,3.8393,3.8388,3.8406,3.8519,3.856,3.8572,3.8756,3.8606,3.8615,3.8622,3.8626,3.908,3.9085,0,0,0,0,0,0,3.8138,3.8163,3.8394,3.8402,3.8231,3.8331,3.8346,3.8404,3.848,3.8487,3.841,3.8402,3.8544,3.856,3.8577,3.8779,3.8617,3.8627,3.8633,3.9074,3.9081,3.9087,0,0,0,0,0,0,3.8132,3.8159,3.8388,3.8282,3.831,3.8342,3.8408,3.841,3.8451,3.8493,3.8498,3.8446,3.8541,3.8562,3.8701,3.8783,3.8632,3.8641,3.9067,3.9076,3.9084,3.9185,0,0,0,0,0,0,3.8123,3.8157,3.8221,3.8284,3.8316,3.8509,3.8413,3.8416,3.8469,3.846,3.8529,3.8535,3.8538,3.8685,3.8711,3.8795,3.8649,3.906,3.9071,3.9081,3.9174,3.9196,3.9214,0,0,0,0,0,3.8112,3.8244,3.8225,3.8253,3.8396,3.8514,3.8532,3.8533,3.8476,3.854,3.8568,3.8533,3.877,3.87,3.8729,3.8817,3.9055,3.9068,3.908,3.9165,3.9191,3.9214,0,0,0,0,0,0,3.8192,3.8252,3.8231,3.8388,3.8446,3.8503,3.8585,3.8561,3.8637,3.8626,3.8623,3.8639,3.8783,3.8814,3.8734,3.8984,3.8904,3.8923,3.8958,3.8984,3.9003,3.8993,3.8658,0,0,0,0,0,3.8227,3.8318,3.8366,3.85,3.853,3.8553,3.8604,3.8599,3.866,3.8684,3.8722,3.8783,3.8871,3.8929,3.9012,3.9178,3.9193,3.9253,3.9273,3.9289,3.9306,3.9396,3.9424,3.9129,3.9129,3.9129,0,0,3.8303,3.8347,3.8404,3.8517,3.8562,3.8656,3.8574,3.8677,3.8747,3.87,3.8833,3.8863,3.893,3.9083,3.9152,3.9113,3.9391,3.9306,3.9318,3.9327,3.9413,3.944,3.9465,3.9138,3.9137,3.9135,0,0,3.8487,3.853,3.8646,3.8692,3.876,3.8774,3.8802,3.8864,3.8881,3.9014,3.8981,3.9065,3.9217,3.9266,3.9311,3.9515,3.9486,3.9543,3.9647,3.9735,3.9758,3.9779,3.9852,3.9878,3.9559,3.9559,3.9559,0,3.8572,3.8712,3.8709,3.8815,3.8865,3.8827,3.8945,3.899,3.9082,3.9119,3.9073,3.9263,3.9306,3.947,3.952,3.9558,3.959,3.9535,3.9755,3.9776,3.9795,3.9864,3.9892,3.9566,3.9565,3.9564,3.9564,0,3.8813,3.8911,3.8996,3.9086,3.9146,3.9257,3.9272,3.9333,3.9323,3.9343,3.9479,3.9529,3.9622,3.966,3.9652,3.9824,3.9797,3.9754,3.9673,3.9829,3.9894,3.9921,3.9575,3.9573,3.9571,3.9569,0,0,3.9053,3.9138,3.917,3.921,3.9283,3.9358,3.9468,3.9558,3.9611,3.9676,3.9769,3.9898,3.9858,3.991,3.9907,3.9984,4.0142,3.9931,3.9932,3.9969,4.0335,4.0367,4.0398,4.0123,4.0128,4.0132,4.0329,0,3.9243,3.9434,3.9434,3.9611,3.9701,3.9666,3.9762,3.9817,3.9838,3.9918,3.9941,4.0033,3.9974,4.0004,4.0079,4.0107,4.0216,4.0093,4.021,4.0214,4.0194,4.0432,4.0466,4.0649,4.0354,4.0359,4.0362,0,3.949,3.9563,3.9748,3.9807,3.9845,3.9931,4.0014,4.0091,4.0153,4.0162,4.022,4.0205,4.0317,4.0233,4.0388,4.0305,4.0353,4.0374,4.0381,4.0392,4.0297,4.0449,4.0708,4.0735,4.0402,4.0399,4.0396,0,3.9646,3.979,3.992,3.9955,4.0028,4.0089,4.0122,4.0179,4.0233,4.0306,4.0341,4.0426,4.0473,4.0539,4.0548,4.0486,4.0704,4.0621,4.0716,4.0716,4.0764,4.0761,4.1034,4.0795,4.0794,4.0794,4.0793,0,3.9859,3.9974,3.9991,4.0071,4.0199,4.0198,4.0325,4.0353,4.0404,4.0489,4.0464,4.0545,4.0551,4.0634,4.0642,4.0769,4.0791,4.0802,4.0803,4.0805,4.0803,4.0836,4.0824,4.0801,4.0799,4.0798,4.0797,0,4.0055,4.0071,4.021,4.0267,4.0284,4.0376,4.0424,4.0501,4.0519,4.0627,4.0653,4.0682,4.0778,4.0793,4.0907,4.0912,4.1065,4.1052,4.1044,4.1042,4.1136,4.1127,4.144,4.1481,4.1215,4.1218,4.122,0,4.019,4.0277,4.0343,4.0398,4.0434,4.0523,4.0578,4.0581,4.0639,4.0716,4.0784,4.0877,4.0952,4.1109,4.114,4.1227,4.1217,4.132,4.123,4.1229,4.1218,4.1213,4.1222,4.1338,4.1341,4.1343,4.1345,0,4.0427,4.0431,4.051,4.0593,4.0659,4.0725,4.0787,4.0833,4.0844,4.0912,4.1009,4.1068,4.1183,4.1277,4.1363,4.1397,4.1374,4.1373,4.14,4.1403,4.1394,4.14,4.1091,4.1366,4.1364,4.1362,4.1361,4.136,4.0597,4.0673,4.0731,4.0821,4.0867,4.0926,4.1,4.1028,4.1109,4.1203,4.12,4.1307,4.1367,4.148,4.1521,4.1606,4.1572,4.1611,4.1621,4.163,4.1639,4.138,4.1621,4.1621,4.162,4.162,4.1619,0,4.0833,4.0868,4.0951,4.1038,4.1109,4.1079,4.1146,4.1207,4.1302,4.136,4.1434,4.1546,4.1637,4.1676,4.1765,4.1825,4.1817,4.1849,4.1844,4.1853,4.1664,4.1632,4.1854,4.1854,4.1854,4.1854,4.1854,4.1854,4.0964,4.1091,4.1102,4.1252,4.1287,4.1391,4.1432,4.1486,4.1532,4.1658,4.1733,4.1757,4.1808,4.19,4.1982,4.1991,4.2025,4.2063,4.2067,4.189,4.1866,4.1843,4.1813,4.207,4.207,4.2248,4.225,4.2251]},{"header":{"parameterUnit":"m.s-1","parameterCategory":1,"la1":30.2991,"la2":30.254,"lo1":-89.0895,"lo2":-89.0444,"dy":0.0017,"dx":0.0017,"nx":28,"ny":28,"refTime":"2024-08-11T15:00:00:Z","depth":0,"parameterNumber":3,"parameterNumberName":"V-component_of_WINDS"},"data":[0,0,0,0,0,0,0,0,0,0,0,0,0,0,0,0,0,0,0,0,0,0,0,0,0,0,0,0,0,0,0,0,0,0,0,0,0,0,0,0,0,0,0,0,0,0,0,0,0,0,0,0,0,0,0,0,0,0,-0.8043,-0.8043,0,-0.8078,-0.8079,-0.8079,-0.8084,-0.8084,-0.8084,-0.8083,-0.8119,-0.812,-0.8122,0,0,0,0,0,0,0,0,0,0,0,0,0,-0.7978,-0.7979,-0.8042,-0.8043,-0.8043,-0.8078,-0.8079,-0.8079,-0.8084,-0.8084,-0.8083,-0.8083,-0.8119,-0.812,-0.8122,0,0,0,0,0,0,0,0,0,0,0,0,0,-0.8009,-0.798,-0.8042,-0.805,-0.8051,-0.8078,-0.8079,-0.8079,-0.8084,-0.8084,-0.8083,-0.8083,-0.8118,-0.812,-0.8122,-0.8143,0,0,-0.8128,-0.8129,0,0,0,0,0,0,0,0,-0.8007,-0.8012,-0.8049,-0.805,-0.8051,-0.8076,-0.8069,-0.8101,-0.8084,-0.8072,-0.8083,-0.8083,-0.8105,-0.8108,-0.8116,-0.8145,-0.8147,-0.8128,-0.8129,-0.813,-0.813,0,0,0,0,0,0,0,-0.8005,-0.801,-0.8057,-0.8049,-0.8051,-0.8052,-0.8056,-0.8075,-0.8091,-0.8073,-0.8073,-0.8077,-0.8106,-0.8114,-0.8117,-0.8147,-0.8128,-0.813,-0.8131,-0.8131,-0.8196,-0.8197,0,0,0,0,0,0,-0.8002,-0.8008,-0.8055,-0.8058,-0.8028,-0.8053,-0.8058,-0.8069,-0.8091,-0.8093,-0.8078,-0.8078,-0.8111,-0.8115,-0.8118,-0.8145,-0.813,-0.8132,-0.8133,-0.8196,-0.8196,-0.8197,0,0,0,0,0,0,-0.8,-0.8006,-0.8054,-0.8033,-0.8039,-0.8055,-0.8067,-0.807,-0.8078,-0.8094,-0.8097,-0.8084,-0.8111,-0.8115,-0.8137,-0.8146,-0.8132,-0.8134,-0.8195,-0.8196,-0.8197,-0.8198,0,0,0,0,0,0,-0.7999,-0.8005,-0.8014,-0.8033,-0.804,-0.8073,-0.8068,-0.8071,-0.8081,-0.8081,-0.81,-0.8103,-0.8111,-0.8134,-0.8139,-0.8148,-0.8136,-0.8194,-0.8195,-0.8196,-0.8197,-0.8199,-0.82,0,0,0,0,0,-0.7996,-0.8013,-0.8014,-0.802,-0.8051,-0.8073,-0.8077,-0.8086,-0.8082,-0.809,-0.8101,-0.8103,-0.8145,-0.8137,-0.8142,-0.8152,-0.8194,-0.8195,-0.8196,-0.8197,-0.8199,-0.82,0,0,0,0,0,0,-0.7993,-0.8015,-0.8017,-0.804,-0.8055,-0.8074,-0.8085,-0.8088,-0.8103,-0.8103,-0.8113,-0.8117,-0.8138,-0.8147,-0.8138,-0.8174,-0.8169,-0.8171,-0.8167,-0.8169,-0.8171,-0.8168,-0.8137,0,0,0,0,0,-0.7995,-0.8011,-0.803,-0.8048,-0.8056,-0.8069,-0.8079,-0.8084,-0.81,-0.8106,-0.8118,-0.8133,-0.8149,-0.816,-0.8176,-0.8199,-0.8203,-0.8209,-0.821,-0.8211,-0.8213,-0.8226,-0.8228,-0.8201,-0.8201,-0.8201,0,0,-0.7999,-0.8014,-0.8023,-0.8048,-0.806,-0.8076,-0.8074,-0.8091,-0.8103,-0.8108,-0.813,-0.8139,-0.8156,-0.8179,-0.8189,-0.8187,-0.8222,-0.8213,-0.8214,-0.8215,-0.8228,-0.823,-0.8232,-0.8202,-0.8202,-0.8202,0,0,-0.8015,-0.8028,-0.8045,-0.8057,-0.8075,-0.8084,-0.8088,-0.8107,-0.8114,-0.8136,-0.814,-0.8154,-0.8183,-0.8195,-0.8204,-0.8226,-0.8228,-0.8231,-0.8238,-0.8251,-0.8253,-0.8255,-0.8263,-0.8265,-0.8233,-0.8233,-0.8233,0,-0.8018,-0.8043,-0.8053,-0.807,-0.8081,-0.8087,-0.8104,-0.8115,-0.8138,-0.8145,-0.8143,-0.8179,-0.819,-0.8216,-0.8221,-0.8229,-0.8234,-0.8228,-0.8252,-0.8254,-0.8256,-0.8263,-0.8266,-0.8233,-0.8233,-0.8233,-0.8233,0,-0.8046,-0.8063,-0.8074,-0.8096,-0.8109,-0.8126,-0.8138,-0.8149,-0.8154,-0.8164,-0.8186,-0.82,-0.822,-0.8226,-0.8231,-0.8253,-0.8251,-0.825,-0.8245,-0.8259,-0.8266,-0.8269,-0.8233,-0.8233,-0.8233,-0.8233,0,0,-0.8059,-0.8087,-0.8091,-0.8102,-0.8123,-0.8136,-0.8154,-0.8173,-0.8182,-0.8198,-0.8213,-0.8237,-0.8237,-0.8248,-0.8254,-0.8265,-0.8281,-0.8263,-0.8264,-0.8266,-0.8306,-0.8306,-0.8309,-0.8283,-0.8284,-0.8284,-0.8305,0,-0.8078,-0.8109,-0.8119,-0.8145,-0.8161,-0.8168,-0.8183,-0.8197,-0.8207,-0.8222,-0.8232,-0.8249,-0.8248,-0.8254,-0.8266,-0.8277,-0.8289,-0.8276,-0.8297,-0.8297,-0.8292,-0.8313,-0.8313,-0.8331,-0.8307,-0.8308,-0.8308,0,-0.8103,-0.8119,-0.8147,-0.8166,-0.8174,-0.8187,-0.8206,-0.822,-0.8237,-0.8243,-0.8256,-0.8262,-0.828,-0.8275,-0.8301,-0.8291,-0.83,-0.8307,-0.8308,-0.831,-0.8303,-0.8315,-0.8337,-0.834,-0.8313,-0.8312,-0.8312,0,-0.8109,-0.8139,-0.8159,-0.8168,-0.8191,-0.8201,-0.8211,-0.8227,-0.8238,-0.8255,-0.8262,-0.828,-0.829,-0.8304,-0.8315,-0.831,-0.834,-0.8335,-0.8345,-0.8345,-0.835,-0.835,-0.8374,-0.8357,-0.8357,-0.8357,-0.8357,0,-0.8128,-0.8145,-0.8163,-0.8175,-0.8194,-0.8206,-0.8224,-0.8235,-0.825,-0.8264,-0.8271,-0.8285,-0.8298,-0.8313,-0.8322,-0.8342,-0.8346,-0.8352,-0.8354,-0.8351,-0.835,-0.8357,-0.8355,-0.8358,-0.8358,-0.8358,-0.8358,0,-0.8139,-0.8151,-0.8174,-0.8195,-0.82,-0.8213,-0.8231,-0.8243,-0.8253,-0.8272,-0.8277,-0.8293,-0.8311,-0.8324,-0.8347,-0.8353,-0.8375,-0.8377,-0.8369,-0.837,-0.8379,-0.8378,-0.8408,-0.8413,-0.8393,-0.8394,-0.8394,0,-0.815,-0.8163,-0.8185,-0.8195,-0.8206,-0.8222,-0.8234,-0.8246,-0.8258,-0.8278,-0.8288,-0.8307,-0.8323,-0.8353,-0.8366,-0.8385,-0.8387,-0.8396,-0.8389,-0.8386,-0.8387,-0.8385,-0.8387,-0.8397,-0.8397,-0.8397,-0.8397,0,-0.8167,-0.8173,-0.819,-0.8208,-0.8222,-0.8237,-0.8253,-0.8261,-0.8276,-0.8289,-0.8308,-0.832,-0.8345,-0.8364,-0.8384,-0.8394,-0.8398,-0.84,-0.8403,-0.84,-0.8395,-0.8397,-0.8372,-0.8399,-0.8398,-0.8398,-0.8398,-0.8398,-0.8178,-0.819,-0.8208,-0.8226,-0.8239,-0.8253,-0.8266,-0.8278,-0.8295,-0.8316,-0.8322,-0.8342,-0.8359,-0.8386,-0.8397,-0.8413,-0.8412,-0.8416,-0.8418,-0.8418,-0.8418,-0.8393,-0.8417,-0.8417,-0.8417,-0.8417,-0.8416,0,-0.8196,-0.8208,-0.8225,-0.8246,-0.826,-0.8264,-0.8281,-0.8293,-0.8311,-0.8326,-0.8342,-0.8364,-0.8383,-0.8399,-0.8418,-0.8428,-0.843,-0.8432,-0.8431,-0.8434,-0.8418,-0.8414,-0.843,-0.843,-0.843,-0.843,-0.843,-0.843,-0.8207,-0.8228,-0.8236,-0.8263,-0.8274,-0.8294,-0.8304,-0.8317,-0.833,-0.8355,-0.8371,-0.8381,-0.8396,-0.8417,-0.8434,-0.8438,-0.8445,-0.8447,-0.8451,-0.8436,-0.8435,-0.8433,-0.8429,-0.8448,-0.8448,-0.8465,-0.8465,-0.8465]}]]